Location: Unspecified
(38.0989°N, 0.6729°W)
Time: 18:22:02
(UTC+02:00)

Envisat - Pass Details

Date: 30 January 2022
Orbit: 764 x 765 km, 98.2° (Epoch: 28 May)

Event Time Altitude Azimuth Distance (km) Brightness Sun altitude
Rises 04:33:35 0° 35° (NE) 3,235 6.7 -42.5°
Reaches altitude 10° 04:37:09 10° 61° (ENE) 2,303 6.1 -41.8°
Maximum altitude 04:39:39 14° 91° (E) 2,054 5.8 -41.3°
Drops below altitude 10° 04:42:08 10° 121° (ESE) 2,296 5.9 -40.8°
Sets 04:45:39 0° 147° (SSE) 3,216 6.5 -40.1°
